This demonstration page uses our WeatherBlox Daily Observations layout. Learn more.

Left ArrowRight Arrow

41.86663, -103.66717

Hourly Observations for September 19, 2015

Temp ( °F °C ) Dew Point ( °F °C ) Humidity (%) Winds ( mph kmh ) Pressure ( in mb ) Visibility ( mi km ) Precip ( " mm )
12:53 am 00:53 Clear 44 6.7 41 5 89 89 E 6 9 30.16 1022 10 16 N/A
1:53 am 01:53 Clear 44 6.7 40 4.4 85 85 E 5 7 30.15 1021 10 16 N/A
2:53 am 02:53 Clear 43 6.1 40 4.4 89 89 E 7 11 30.13 1020 10 16 N/A
3:53 am 03:53 Clear 43 6.1 40 4.4 89 89 ESE 8 13 30.13 1020 10 16 N/A
4:53 am 04:53 Clear 42 5.6 40 4.4 92 92 E 6 9 30.12 1020 10 16 N/A
5:53 am 05:53 Clear 42 5.6 39 3.9 89 89 ESE 9 15 30.12 1020 10 16 N/A
6:53 am 06:53 Sunny 41 5 39 3.9 93 93 ESE 7 11 30.14 1021 10 16 N/A
7:53 am 07:53 Sunny 46 7.8 41 5 83 83 E 7 11 30.14 1021 10 16 N/A
8:53 am 08:53 Sunny 51 10.6 43 6.1 74 74 E 10 17 30.12 1020 10 16 N/A
9:53 am 09:53 Sunny 58 14.4 43 6.1 58 58 SE 12 19 30.08 1019 10 16 N/A
10:53 am 10:53 Sunny 64 17.8 42 5.6 45 45 SSE 9 15 30.05 1018 10 16 N/A
11:53 am 11:53 Sunny 68 20 41 5 38 38 SSE 10 17 30.01 1016 10 16 N/A
12:53 pm 12:53 Sunny 72 22.2 40 4.4 31 31 S 10 17 29.95 1014 10 16 N/A
1:53 pm 13:53 Sunny 75 23.9 40 4.4 28 28 VRB 5 7 29.91 1013 10 16 N/A
2:53 pm 14:53 Sunny 77 25 37 2.8 24 24 SSW 8 13 29.89 1012 10 16 N/A
3:53 pm 15:53 Sunny 77 25 34 1.1 21 21 S 5 7 29.86 1011 10 16 N/A
4:53 pm 16:53 Sunny 78 25.6 36 2.2 22 22 SSE 7 11 29.85 1011 10 16 N/A
5:53 pm 17:53 Sunny 76 24.4 42 5.6 30 30 ENE 5 7 29.86 1011 10 16 N/A
6:53 pm 18:53 Sunny 66 18.9 44 6.7 45 45 ENE 6 9 29.88 1012 10 16 N/A
7:53 pm 19:53 Clear 59 15 47 8.3 64 64 E 7 11 29.90 1013 10 16 N/A
8:53 pm 20:53 Clear 56 13.3 46 7.8 70 70 NE 5 7 29.91 1013 10 16 N/A
9:53 pm 21:53 Clear 55 12.8 44 6.7 67 67 E 7 11 29.91 1013 10 16 N/A
10:53 pm 22:53 Clear 52 11.1 43 6.1 72 72 N N/A 29.91 1013 10 16 N/A
11:53 pm 23:53 Clear 49 9.4 43 6.1 80 80 N N/A 29.91 1013 10 16 N/A

Powered by AerisWeather